BEIDOU-2 IGSO-1 (C06) 1 36828U 10036A 25312.54239750 -.00000069 00000+0 00000+0 0 9999 2 36828 54.2780 164.9582 0050931 216.0780 329.1706 1.00286031 55887 BEIDOU-2 G4 (C04) 1 37210U 10057A 25312.77710157 -.00000111 00000+0 00000+0 0 9996 2 37210 3.0983 70.0340 0010537 181.9657 235.9790 1.00272379 55089 BEIDOU-2 IGSO-2 (C07) 1 37256U 10068A 25295.62146750 -.00000196 00000+0 00000+0 0 9997 2 37256 47.9774 274.7760 0047363 217.7614 226.5684 1.00248503 54417 BEIDOU-2 IGSO-3 (C08) 1 37384U 11013A 25312.70910215 -.00000200 00000+0 00000+0 0 9990 2 37384 62.0992 42.2424 0035989 184.2327 184.7050 1.00278443 53455 BEIDOU-2 IGSO-4 (C09) 1 37763U 11038A 25311.56266876 .00000020 00000+0 00000+0 0 9997 2 37763 54.5762 167.6613 0147968 230.3608 304.4504 1.00288713 52427 BEIDOU-2 IGSO-5 (C10) 1 37948U 11073A 25310.84046425 -.00000171 00000+0 00000+0 0 9995 2 37948 48.0883 274.2976 0108862 221.9154 305.8122 1.00254069 50902 BEIDOU-2 G5 (C05) 1 38091U 12008A 25312.88441900 .00000057 00000+0 00000+0 0 9999 2 38091 3.0228 70.8116 0010713 221.5227 133.1347 1.00274592 50157 BEIDOU-2 M3 (C11) 1 38250U 12018A 25309.81407356 -.00000048 00000+0 00000+0 0 9994 2 38250 55.9509 312.3989 0024790 270.8035 88.9262 1.86229700 91780 BEIDOU-2 M4 (C12) 1 38251U 12018B 25309.74614751 -.00000048 00000+0 00000+0 0 9996 2 38251 55.8529 311.6333 0015938 272.3713 87.4591 1.86231998 91782 BEIDOU-2 M6 (C14) 1 38775U 12050B 25311.06804472 -.00000028 00000+0 00000+0 0 9990 2 38775 56.3485 70.2507 0010497 351.3090 8.6519 1.86230724 89173 BEIDOU-2 G6 (C02) 1 38953U 12059A 25312.86225363 -.00000173 00000+0 00000+0 0 9993 2 38953 3.8608 75.8270 0006584 291.0961 75.7671 1.00267850 47705 BEIDOU-3S IGSO-1S (C31) 1 40549U 15019A 25297.52891953 -.00000131 00000+0 00000+0 0 9999 2 40549 49.6453 298.3029 0040504 197.6198 177.4401 1.00251575 38711 BEIDOU-3S M2S (C58) 1 40748U 15037A 25312.09899187 -.00000053 00000+0 00000+0 0 9990 2 40748 55.0689 309.6528 0012883 262.9024 96.9536 1.86229038 70002 BEIDOU-3S M1S (C57) 1 40749U 15037B 25312.33375596 -.00000053 00000+0 00000+0 0 9991 2 40749 55.0654 309.6349 0003004 351.7864 8.2113 1.86253804 70016 BEIDOU-3S IGSO-2S (C56) 1 40938U 15053A 25312.83551522 -.00000153 00000+0 00000+0 0 9990 2 40938 49.5674 261.4063 0061499 189.2093 354.4985 1.00277492 37149 BEIDOU-2 IGSO-6 (C13) 1 41434U 16021A 25312.74273791 -.00000164 00000+0 00000+0 0 9999 2 41434 59.9188 40.2406 0058544 230.0643 138.6983 1.00260253 35272 BEIDOU-2 G7 (C03) 1 41586U 16037A 25312.83863524 -.00000353 00000+0 00000+0 0 9993 2 41586 1.6726 67.3665 0004780 335.1957 58.1558 1.00274759 4688 BEIDOU-3 M1 (C19) 1 43001U 17069A 25312.44443035 -.00000025 00000+0 00000+0 0 9997 2 43001 56.4983 70.3668 0007805 306.8749 53.0366 1.86230788 54490 BEIDOU-3 M2 (C20) 1 43002U 17069B 25312.38273927 -.00000025 00000+0 00000+0 0 9992 2 43002 56.4971 70.4053 0005543 341.0216 18.9405 1.86230638 54481 BEIDOU-3 M7 (C27) 1 43107U 18003A 25311.58934573 -.00000054 00000+0 00000+0 0 9991 2 43107 54.5276 310.0371 0002290 80.4284 279.6015 1.86232339 53229 BEIDOU-3 M8 (C28) 1 43108U 18003B 25312.60786824 -.00000055 00000+0 00000+0 0 9991 2 43108 54.5195 309.9846 0004999 267.5212 92.4243 1.86230816 53256 BEIDOU-3 M4 (C22) 1 43207U 18018A 25311.43875404 -.00000027 00000+0 00000+0 0 9999 2 43207 56.4564 70.4717 0004354 29.7528 330.2517 1.86230703 52618 BEIDOU-3 M3 (C21) 1 43208U 18018B 25310.96834759 -.00000027 00000+0 00000+0 0 9995 2 43208 56.4553 70.4914 0005408 324.7398 35.2031 1.86230837 52600 BEIDOU-3 M9 (C29) 1 43245U 18029A 25310.64723551 -.00000051 00000+0 00000+0 0 9997 2 43245 54.3981 307.7263 0002143 259.0764 100.9022 1.86232339 51750 BEIDOU-3 M10 (C30) 1 43246U 18029B 25311.11961471 -.00000052 00000+0 00000+0 0 9997 2 43246 54.3952 307.7373 0003447 354.9466 5.0514 1.86228919 51742 BEIDOU-2 IGSO-7 (C16) 1 43539U 18057A 25310.34992611 -.00000053 00000+0 00000+0 0 9998 2 43539 55.1692 164.9912 0092004 235.5014 243.6775 1.00267932 26890 BEIDOU-3 M5 (C23) 1 43581U 18062A 25312.41836992 .00000036 00000+0 00000+0 0 9990 2 43581 54.0893 189.8114 0002534 333.0872 26.9957 1.86228595 49528 BEIDOU-3 M6 (C24) 1 43582U 18062B 25310.13382898 .00000067 00000+0 00000+0 0 9993 2 43582 54.0891 189.8784 0007158 39.4855 320.6689 1.86229636 49483 BEIDOU-3 M12 (C26) 1 43602U 18067A 25308.99733501 .00000074 00000+0 00000+0 0 9991 2 43602 54.1833 188.6445 0008926 37.7246 322.4398 1.86227566 48940 BEIDOU-3 M11 (C25) 1 43603U 18067B 25312.35350081 .00000039 00000+0 00000+0 0 9996 2 43603 54.1805 188.4946 0005389 31.9104 328.2192 1.86227103 49037 BEIDOU-3 M13 (C32) 1 43622U 18072A 25311.23631547 -.00000028 00000+0 00000+0 0 9997 2 43622 56.4289 69.9957 0004610 302.4382 57.4970 1.86230776 48522 BEIDOU-3 M14 (C33) 1 43623U 18072B 25311.10178176 -.00000028 00000+0 00000+0 0 9998 2 43623 56.4308 69.9940 0002586 355.0476 4.9293 1.86230809 48516 BEIDOU-3 M16 (C35) 1 43647U 18078A 25312.33402487 -.00000053 00000+0 00000+0 0 9999 2 43647 54.2930 307.7238 0006450 17.4165 342.6054 1.86232145 48040 BEIDOU-3 M15 (C34) 1 43648U 18078B 25312.46322229 -.00000053 00000+0 00000+0 0 9999 2 43648 54.2887 307.7204 0003059 15.5005 344.5087 1.86232036 48067 BEIDOU-3 G1 (C59) 1 43683U 18085A 25312.84452861 -.00000275 00000+0 00000+0 0 9990 2 43683 2.5207 104.0588 0002246 56.5914 331.7788 1.00272751 25854 BEIDOU-3 M17 (C36) 1 43706U 18093A 25312.41394722 .00000037 00000+0 00000+0 0 9994 2 43706 54.1727 189.7875 0007046 303.2455 277.7881 1.86228208 47426 BEIDOU-3 M18 (C37) 1 43707U 18093B 25312.48246898 .00000035 00000+0 00000+0 0 9990 2 43707 54.1750 189.7771 0006749 346.1816 13.8958 1.86226423 47425 BEIDOU-3 IGSO-1 (C38) 1 44204U 19023A 25312.90395575 -.00000230 00000+0 00000+0 0 9999 2 44204 58.3867 39.9273 0026538 220.3723 229.7207 1.00254260 5003 BEIDOU-2 G8 (C01) 1 44231U 19027A 25312.84539529 -.00000246 00000+0 00000+0 0 9992 2 44231 1.5740 74.5898 0007690 254.1394 168.4586 1.00271841 23876 BEIDOU-3 IGSO-2 (C39) 1 44337U 19035A 25312.48355993 -.00000076 00000+0 00000+0 0 9990 2 44337 55.2173 160.8033 0037301 202.3736 337.9945 1.00281727 23456 BEIDOU-3 M24 (C46) 1 44542U 19061A 25312.55399155 .00000034 00000+0 00000+0 0 9996 2 44542 54.4005 190.1704 0009384 18.9006 341.2297 1.86229323 41682 BEIDOU-3 M23 (C45) 1 44543U 19061B 25311.33735234 .00000053 00000+0 00000+0 0 9995 2 44543 54.3990 190.1797 0005877 13.2467 164.0128 1.86229390 41665 BEIDOU-3 IGSO-3 (C40) 1 44709U 19073A 25312.32990774 -.00000201 00000+0 00000+0 0 9990 2 44709 55.1846 283.2876 0044683 191.9600 167.8650 1.00253857 22246 BEIDOU-3 M22 (C44) 1 44793U 19078A 25310.78354235 -.00000052 00000+0 00000+0 0 9996 2 44793 54.1408 307.6477 0005089 22.0362 337.9878 1.86231885 40508 BEIDOU-3 M21 (C43) 1 44794U 19078B 25311.99430990 -.00000053 00000+0 00000+0 0 9995 2 44794 54.1130 307.5708 0003334 7.2513 352.7534 1.86227584 40539 BEIDOU-3 M19 (C41) 1 44864U 19090A 25312.32892368 -.00000026 00000+0 00000+0 0 9996 2 44864 56.3644 70.1023 0016530 284.9513 134.8368 1.86231087 40122 BEIDOU-3 M20 (C42) 1 44865U 19090B 25312.10110218 -.00000026 00000+0 00000+0 0 9990 2 44865 56.3658 70.1440 0013725 298.8284 57.8329 1.86231061 40092 BEIDOU-3 G2 (C60) 1 45344U 20017A 25312.86225363 -.00000141 00000+0 00000+0 0 9993 2 45344 2.9369 43.1249 0003693 258.0738 137.5690 1.00271421 21055 BEIDOU-3 G3 (C61) 1 45807U 20040A 25312.26784793 -.00000351 00000+0 00000+0 0 9997 2 45807 1.9056 66.2418 0004550 303.2300 245.2222 1.00268515 19859 BEIDOU-3 G4 (C62) 1 56564U 23066A 25312.85467569 -.00000111 00000+0 00000+0 0 9998 2 56564 0.8919 299.4379 0004127 230.4359 346.1361 1.00271962 9188 BEIDOU-3 M28 (C50) 1 58654U 23207A 25311.53579047 -.00000029 00000+0 00000+0 0 9994 2 58654 55.5542 69.7931 0001028 247.7414 112.2285 1.86229597 12712 BEIDOU-3 M26 (C48) 1 58655U 23207B 25312.40763012 -.00000028 00000+0 00000+0 0 9998 2 58655 55.5572 69.7497 0002624 238.6572 121.3007 1.86231144 12714 BEIDOU-3 M25 (C47) 1 61186U 24168B 25312.46330213 -.00000055 00000+0 00000+0 0 9997 2 61186 54.6720 309.9074 0005508 287.9005 226.4018 1.86229769 7672 BEIDOU-3 M27 (C49) 1 61187U 24168C 25311.15341368 -.00000053 00000+0 00000+0 0 9994 2 61187 54.6686 309.9367 0001966 315.0018 176.0153 1.86229855 5124